Location: Unspecified
(50.7693°N, 0.0000°E)
Time: 22:21:49
(UTC+00:00)

A-11 Canister half - Pass Details

Date: 18 June 2019
Orbit: 1527 x 1682 km, 47.3° (Epoch: 22 October)

Event Time Altitude Azimuth Distance (km) Brightness Sun altitude
Rises 04:11:20 0° 195° (SSW) 4,731 11.1 2.3°
Reaches altitude 10° 04:15:10 10° 183° (S) 3,729 10.7 2.8°
Maximum altitude 04:22:08 24° 134° (SE) 2,762 10.6 3.7°
Drops below altitude 10° 04:29:02 10° 85° (E) 3,699 12.3 4.6°
Sets 04:32:47 0° 73° (ENE) 4,684 13.5 5.1°
